Qasigiannguit Sermersua

KL  EN  DA
ASIAQ
Weather Now GREENLAND SURVEY
Updated [WGT/WGST] Temperature [°C] Wind [m/s] Air pressure [hPa] Relative humidity [%] Precipitation [mm]
Present Wind chill Speed Max
12.05 19:00-0,70,01,0 ⇗n/a93771n/a
12.05 18:00-0,00,00,7 ⇗n/a93766n/a
12.05 17:000,70,00,2 ⇒n/a93764n/a
12.05 16:00-0,00,01,0 ⇗n/a93768n/a
12.05 15:00-0,70,00,2 ⇑n/a93773n/a
12.05 14:00-0,50,00,2 ⇑n/a93770n/a
12.05 13:00-0,40,00,9 ⇑n/a93769n/a
12.05 12:00-0,70,01,3 ⇑n/a93768n/a
12.05 11:00-1,3-3,01,4 ⇖n/a93766n/a
12.05 10:00-2,2-4,51,7 ⇖n/a93668n/a
12.05 09:00-2,9-5,51,8 ⇖n/a93670n/a
12.05 08:00-4,3-7,21,8 ⇖n/a93675n/a
12.05 07:00-5,1-8,42,0 ⇖n/a93679n/a
12.05 06:00-5,8-9,22,0 ⇖n/a93581n/a
12.05 05:00-6,0-9,62,1 ⇖n/a93584n/a
12.05 04:00-6,0-9,21,9 ⇖n/a93585n/a
12.05 03:00-6,0-9,21,8 ⇖n/a93586n/a
12.05 02:00-5,7-8,61,7 ⇖n/a93585n/a
12.05 01:00-5,3-8,11,7 ⇐n/a93584n/a
12.05 00:00-5,2-8,01,6 ⇐n/a93584n/a
11.05 23:00-4,8-7,41,6 ⇐n/a93585n/a
11.05 22:00-4,50,01,0 ⇐n/a93584n/a
11.05 21:00-3,70,01,0 ⇐n/a93580n/a
11.05 20:00-2,60,00,3 ⇖n/a93575n/a
11.05 19:00-2,20,00,0 ⇒n/a93576n/a
Position: (64.1623,-51.3587)

[Back]